Location: Mission Viejo Division
(33.5624°N, 117.5924°W)
Time: 09:44:42
(UTC+00:00)

Atlas Centaur 2 - Pass Details

Date: 22 May 2024
Orbit: 458 x 1278 km, 30.4° (Epoch: 13 June)

Event Time Altitude Azimuth Distance (km) Brightness Sun altitude
Exits shadow 12:05:58 - 220° (SW) 1,756 3.3 -8.0°
Reaches altitude 10° 12:06:11 10° 218° (SW) 1,680 3.2 -8.0°
Maximum altitude 12:09:16 24° 163° (SSE) 1,003 2.5 -7.4°
Drops below altitude 10° 12:12:11 10° 107° (ESE) 1,585 4.3 -6.9°
Sets 12:14:35 0° 93° (E) 2,464 5.7 -6.5°
